OIIK

Details ICAO OIIK
Name GHAZVIN
Region Iran
Timezone Asia/Tehran (UTC+4.5)
Plans Departing 8
Arriving 0
Stats Elevation 4,184 ft / 1,275 m (AMSL)
Location 36.240060° 50.047151°
Runways 1
Magnetic Variation 4.983° E
Sunrise 2018-05-23 01:29:38 UTC / 2018-05-23 05:59:38 Local
Sunset 2018-05-23 15:46:20 UTC / 2018-05-23 20:16:20 Local
Advertisement - Login to hide

Runways

ID Width Length Bearing (true) Bearing (mag) Surface Threshold Offset Overrun Length
10 131 ft / 40 m 3,663 ft / 1,117 m 99.95° 94.97° Asphalt 0 ft / 0 m 260 ft / 79 m
28 131 ft / 40 m 3,663 ft / 1,117 m 279.96° 274.98° Asphalt 0 ft / 0 m 70 ft / 21 m

Map

Weather


0- 5 10 15 20 25 30 35+ Temperature / ° C

Clouds and Precipitation
Forecast for 2018-05-23 12:00 UTC. Updated 2 hours ago

Ground ~20,000 ft ~40,000 ft Winds

METAR

OIIK 231054Z 18002KT 9999 SCT030CB BKN120 26/08 Q1020

TAF

Not found

Frequencies

Tower 121.90 MHz INFO
Tower 118.30 MHz INFO
Warning: Do not use this data for real-world aviation or navigation. No guarantee of current accuracy is given.